Weather History for Miami, FL

Change the Weather History Date:

Tuesday, June 18, 2013

  Actual Average Record
Temperature  
Mean Temperature 85 °F 83 °F  
Max Temperature 90 °F 90 °F 94 °F (1953)
Min Temperature 80 °F 76 °F 63 °F (1904)
Degree Days  
Heating Degree Days 0 0  
Month to date heating degree days 0 0  
Since 1 June heating degree days 0 0  
Since 1 July heating degree days 70 128  
Cooling Degree Days 20 18  
Month to date cooling degree days 324 315  
Year to date cooling degree days 1769 1671  
Since 1 June cooling degree days 324 315  
Growing Degree Days 35 (Base 50)    
Moisture  
Dew Point 74 °F    
Average Humidity 72    
Maximum Humidity 85    
Minimum Humidity 59    
Precipitation  
Precipitation 0.00 in 0.35 in 5.95 in (1959)
Month to date precipitation 4.59 5.67  
Year to date precipitation 23.96 21.02  
Snow  
Snow 0.00 in - - ()
Month to date snowfall 0.0  
Since 1 June snowfall 0.0  
Since 1 July snowfall 0.0  
Snow Depth 0.00 in    
Sea Level Pressure  
Sea Level Pressure 30.05 in    
Wind  
Wind Speed 7 mph (SE)    
Max Wind Speed 15 mph    
Max Gust Speed 20 mph    
Visibility 10 miles    
Events      
T = Trace of Precipitation, MM = Missing Value Source: NWS Daily Summary

Daily Weather History Graph

Daily Weather History Graph

Search for Another Location

Airport:

Trip Planner

Search our weather history database for the weather conditions in past years. The results will help you decide how hot, cold, wet, or windy it might be!

Date:

Astronomy

Jun. 18, 2013 Rise Set
Actual Time 6:29 AM EDT 8:15 PM EDT
Civil Twilight 6:03 AM EDT 8:41 PM EDT
Nautical Twilight 5:32 AM EDT 9:12 PM EDT
Astronomical Twilight 4:59 AM EDT 9:45 PM EDT
Moon 3:18 PM EDT 2:12 AM EDT
Length of Visible Light 14h 37m
Length of Day
13h 45m
Waxing Gibbous, 70% of the Moon is Illuminated
Jun 18
Waxing Gibbous
Jun 23
Full
Jun 30
Last Quarter
Jul 8
New
Jul 15
First Quarter

Hourly Weather History & Observations

Time (EDT) Temp. Heat Index Dew Point Humidity Pressure Visibility Wind Dir Wind Speed Gust Speed Precip Events Conditions
12:53 AM 82.0 °F 88.6 °F 75.0 °F 79% 30.07 in 10.0 mi ESE 5.8 mph - N/A   Scattered Clouds
1:53 AM 82.0 °F 88.6 °F 75.0 °F 79% 30.06 in 10.0 mi East 3.5 mph - N/A   Scattered Clouds
2:53 AM 81.0 °F 86.7 °F 75.0 °F 82% 30.05 in 10.0 mi East 4.6 mph - N/A   Scattered Clouds
3:53 AM 81.0 °F 86.7 °F 75.0 °F 82% 30.04 in 10.0 mi Calm Calm - N/A   Scattered Clouds
4:53 AM 81.0 °F 86.7 °F 75.0 °F 82% 30.04 in 10.0 mi Calm Calm - N/A   Scattered Clouds
5:53 AM 80.1 °F 85.1 °F 75.0 °F 85% 30.03 in 10.0 mi Variable 4.6 mph - N/A   Scattered Clouds
6:53 AM 81.0 °F 86.7 °F 75.0 °F 82% 30.04 in 10.0 mi ESE 8.1 mph - N/A   Mostly Cloudy
7:53 AM 82.9 °F 90.2 °F 75.0 °F 77% 30.05 in 10.0 mi ESE 10.4 mph - N/A   Mostly Cloudy
8:49 AM 84.2 °F 92.3 °F 75.2 °F 74% 30.07 in 10.0 mi SE 10.4 mph - N/A   Mostly Cloudy
8:53 AM 84.0 °F 91.9 °F 75.0 °F 74% 30.07 in 10.0 mi ESE 9.2 mph - N/A   Mostly Cloudy
9:53 AM 86.0 °F 93.8 °F 73.9 °F 67% 30.07 in 10.0 mi ESE 11.5 mph - N/A   Mostly Cloudy
10:01 AM 86.0 °F 93.4 °F 73.4 °F 66% 30.07 in 10.0 mi ESE 10.4 mph - N/A   Scattered Clouds
10:53 AM 87.1 °F 94.5 °F 73.0 °F 63% 30.08 in 10.0 mi SE 8.1 mph 16.1 mph N/A   Mostly Cloudy
11:53 AM 87.1 °F 93.6 °F 72.0 °F 61% 30.08 in 10.0 mi ESE 9.2 mph - N/A   Mostly Cloudy
12:53 PM 88.0 °F 96.5 °F 73.9 °F 63% 30.07 in 10.0 mi SSE 10.4 mph 18.4 mph N/A   Mostly Cloudy
1:53 PM 89.1 °F 98.0 °F 73.9 °F 61% 30.06 in 10.0 mi ESE 6.9 mph 16.1 mph N/A   Mostly Cloudy
2:53 PM 89.1 °F 98.0 °F 73.9 °F 61% 30.04 in 10.0 mi SE 10.4 mph 17.3 mph N/A   Mostly Cloudy
3:53 PM 88.0 °F 96.5 °F 73.9 °F 63% 30.03 in 10.0 mi SE 13.8 mph 18.4 mph N/A   Mostly Cloudy
4:53 PM 87.1 °F 96.3 °F 75.0 °F 67% 30.01 in 10.0 mi SE 13.8 mph 19.6 mph N/A   Scattered Clouds
5:53 PM 84.9 °F 92.1 °F 73.9 °F 69% 30.01 in 10.0 mi ESE 12.7 mph 18.4 mph N/A   Scattered Clouds
6:53 PM 84.9 °F 92.1 °F 73.9 °F 69% 30.01 in 10.0 mi SE 13.8 mph - N/A   Mostly Cloudy
7:53 PM 84.0 °F 91.2 °F 73.9 °F 72% 30.02 in 10.0 mi SSE 9.2 mph - N/A   Mostly Cloudy
8:53 PM 84.0 °F 91.2 °F 73.9 °F 72% 30.03 in 10.0 mi ESE 8.1 mph - N/A   Mostly Cloudy
9:53 PM 82.9 °F 89.4 °F 73.9 °F 74% 30.05 in 10.0 mi SSE 8.1 mph - N/A   Mostly Cloudy
10:53 PM 82.9 °F 89.4 °F 73.9 °F 74% 30.04 in 10.0 mi SSE 6.9 mph - N/A   Scattered Clouds
11:53 PM 82.9 °F 89.4 °F 73.9 °F 74% 30.06 in 10.0 mi SE 5.8 mph - N/A   Mostly Cloudy